星链-4642 (STARLINK-4642 )

导读 | 星芒AI

STARLINK-4642 是 SpaceX Starlink 项目中的一颗低轨通信卫星,属于第 20 批 Starlink 卫星任务(54 颗卫星之一),于 2021 年 11 月 19 日由猎鹰 9 号火箭从卡纳维拉尔角发射升空。该卫星运行在约 550 公里的轨道高度,旨在为全球用户提供高速互联网服务。它采用先进的相控阵天线和激光通信技术,支持低延迟、高带宽的连接。STARLINK-4642 与其他 Starlink 卫星协同工作,构建覆盖全球的卫星互联网网络。

基本信息
目录编号:
53720
目录名称:
STARLINK-4642
国际标识:
2022-107W
轨道中心:
EARTH
卫星名称:
星链-4642
卫星全名:
星链-4642 (STARLINK-4642 )
卫星状态:
在轨 (已飞行1203 天)
发射日期:
2022-09-05 UTC
国别 :
美国 (US)
星等 :
--
轨道信息
数据来源 国际轨道数据
星历时间: 2025-12-21T10:33:26+0800
5小时前
查看轨道信息
半长轴: 6917.871km
偏心率: 0.0001569
轨道倾角: 53.217°
近地点辐角 86.630°
升交点赤经 246.653°
平近点角 273.487°
近地点: 538.648km
远地点: 540.82km
周期: 95.437分钟
每日圈数: 15.088432
详细信息
固有亮度:
5
最大亮度:
2.5
卫星平台:
Starlink v1.5
覆盖范围:
全球
运营商:
太空探索技术公司
运营商所在国:
美国
制造商(研发单位):
太空探索技术公司
制造商所在国:
美国
使用方式:
暂无
卫星简介
星链(Starlink)计划是由太空探索技术公司(SpaceX)提出的一个巨型低轨卫星互联网星座项目,计划在2019年至2024年间在太空搭建由约1.2万颗卫星组成的“星链”网络,其中1584颗将部署在地球上空550千米处的近地轨道,并从2020年开始工作。该卫星仍在工作。
2D轨道图
3D轨道图
轨道高度分析图
轨道倾角分析图
轨道综合分析图
查看轨道综合分析图